[[{"header":{"parameterUnit":"m.s-1","parameterCategory":1,"la1":30.2991,"la2":30.254,"lo1":-89.0895,"lo2":-89.0444,"dy":0.0017,"dx":0.0017,"nx":28,"ny":28,"refTime":"2024-02-28T03:00:00:Z","depth":0,"parameterNumber":2,"parameterNumberName":"U-component_of_WINDS"},"data":[0,0,0,0,0,0,0,0,0,0,0,0,0,0,0,0,0,0,0,0,0,0,0,0,0,0,0,0,0,0,0,0,0,0,0,0,0,0,0,0,0,0,0,0,0,0,0,0,0,0,0,0,0,0,0,0,0,0,2.1168,2.1168,0,2.1093,2.1092,2.1091,2.1074,2.1074,2.1075,2.1076,2.0996,2.0994,2.0991,0,0,0,0,0,0,0,0,0,0,0,0,0,2.1301,2.1298,2.1169,2.1168,2.1167,2.1093,2.1092,2.1091,2.1074,2.1074,2.1075,2.1076,2.0997,2.0994,2.0991,0,0,0,0,0,0,0,0,0,0,0,0,0,2.1236,2.1298,2.1169,2.1149,2.1147,2.1093,2.1092,2.109,2.1074,2.1075,2.1075,2.1076,2.0998,2.0994,2.0991,2.095,0,0,2.0979,2.0977,0,0,0,0,0,0,0,0,2.124,2.1231,2.1153,2.1151,2.1148,2.1094,2.1109,2.1043,2.1073,2.1101,2.1076,2.1076,2.1028,2.1022,2.1006,2.0946,2.0943,2.0978,2.0976,2.0974,2.0973,0,0,0,0,0,0,0,2.1244,2.1234,2.1138,2.1152,2.1149,2.1145,2.1137,2.1097,2.1061,2.1099,2.1098,2.1089,2.1027,2.1009,2.1004,2.0942,2.0978,2.0975,2.0972,2.0971,2.0851,2.085,0,0,0,0,0,0,2.1252,2.1238,2.1141,2.1136,2.1197,2.1142,2.1133,2.111,2.1061,2.1055,2.1088,2.1089,2.1016,2.1008,2.1001,2.0953,2.0974,2.0971,2.0968,2.0852,2.0851,2.085,0,0,0,0,0,0,2.1255,2.1244,2.1144,2.1187,2.1174,2.1139,2.1114,2.1108,2.1091,2.1053,2.1047,2.1077,2.1016,2.1006,2.0964,2.095,2.0969,2.0965,2.0853,2.0852,2.085,2.0855,0,0,0,0,0,0,2.1259,2.1245,2.1228,2.1187,2.1172,2.1108,2.1113,2.1106,2.1084,2.1084,2.1041,2.1035,2.1016,2.097,2.096,2.0945,2.0962,2.0854,2.0852,2.0851,2.0856,2.0854,2.0853,0,0,0,0,0,2.1264,2.1231,2.1227,2.1215,2.115,2.1107,2.1098,2.1077,2.1083,2.1067,2.1044,2.1036,2.0954,2.0966,2.0955,2.0938,2.0855,2.0853,2.0851,2.0857,2.0855,2.0853,0,0,0,0,0,0,2.1269,2.1225,2.122,2.1173,2.1144,2.1104,2.1082,2.1075,2.1043,2.1044,2.1019,2.101,2.097,2.095,2.0964,2.0899,2.0904,2.09,2.0913,2.091,2.0909,2.0914,2.0959,0,0,0,0,0,2.1266,2.1234,2.1197,2.1159,2.1145,2.1117,2.1097,2.1084,2.1053,2.104,2.1013,2.0983,2.0951,2.093,2.0897,2.0854,2.0846,2.0838,2.0836,2.0835,2.0831,2.081,2.0807,2.0844,2.0844,2.0844,0,0,2.1256,2.1228,2.1209,2.116,2.1136,2.1105,2.1106,2.1072,2.1049,2.1034,2.0994,2.0974,2.0939,2.0897,2.0877,2.0879,2.082,2.0832,2.0832,2.0828,2.0808,2.0805,2.0802,2.0842,2.0843,2.0843,0,0,2.1224,2.1199,2.1166,2.1144,2.1108,2.1091,2.1083,2.1045,2.1032,2.0991,2.0981,2.0954,2.0898,2.0875,2.0855,2.0821,2.0814,2.0812,2.0802,2.0782,2.0779,2.0777,2.0766,2.0762,2.0808,2.0808,2.0808,0,2.1216,2.1169,2.115,2.1118,2.1098,2.1086,2.1054,2.1033,2.0989,2.0975,2.0979,2.0911,2.0886,2.0841,2.0833,2.0817,2.081,2.0815,2.0781,2.0778,2.0776,2.0765,2.0761,2.0808,2.0808,2.0808,2.0808,0,2.1163,2.1131,2.1109,2.107,2.1047,2.1015,2.0993,2.0973,2.0964,2.0946,2.0907,2.0878,2.0842,2.083,2.0819,2.0784,2.0787,2.0786,2.0791,2.0772,2.0763,2.0758,2.0808,2.0808,2.0808,2.0808,0,0,2.1128,2.1083,2.1075,2.1059,2.1022,2.0996,2.0966,2.0932,2.0916,2.0888,2.0862,2.0818,2.0819,2.0797,2.0785,2.0767,2.0745,2.0769,2.0768,2.0767,2.0708,2.0709,2.0704,2.0741,2.0741,2.074,2.0711,0,2.1092,2.1037,2.1022,2.0976,2.0948,2.0939,2.0913,2.0888,2.0872,2.0847,2.083,2.0799,2.0801,2.0789,2.0771,2.0752,2.0733,2.0754,2.0719,2.0718,2.0727,2.0699,2.0699,2.0673,2.0707,2.0706,2.0706,0,2.1041,2.1015,2.0966,2.0938,2.0925,2.0902,2.0872,2.0847,2.0821,2.0811,2.079,2.078,2.075,2.0759,2.0718,2.0732,2.0718,2.0707,2.0705,2.0701,2.071,2.0694,2.0664,2.066,2.0699,2.07,2.07,0,2.1023,2.0975,2.0941,2.0927,2.0892,2.0876,2.0861,2.0835,2.0817,2.0792,2.078,2.0751,2.0735,2.0714,2.0697,2.0705,2.0659,2.0665,2.0651,2.0652,2.064,2.0641,2.0608,2.0631,2.0631,2.0631,2.0631,0,2.0984,2.0955,2.0933,2.0911,2.088,2.0865,2.0834,2.0819,2.0797,2.0774,2.0765,2.0743,2.0723,2.07,2.0687,2.0657,2.0649,2.0642,2.0638,2.0642,2.0643,2.0632,2.0633,2.063,2.0631,2.0631,2.0631,0,2.0957,2.094,2.0903,2.0875,2.0867,2.0846,2.0822,2.0802,2.0788,2.0759,2.0752,2.073,2.0702,2.0685,2.0649,2.0641,2.0608,2.0605,2.0617,2.0616,2.0603,2.0605,2.056,2.0555,2.0582,2.0582,2.0582,0,2.0933,2.0911,2.0882,2.0867,2.0852,2.0827,2.081,2.0795,2.0778,2.0749,2.0734,2.0706,2.0683,2.064,2.0621,2.0595,2.0592,2.0578,2.0587,2.0593,2.0593,2.0594,2.0593,2.0576,2.0576,2.0576,2.0576,0,2.0893,2.0888,2.0863,2.0838,2.0819,2.0797,2.0776,2.0764,2.0747,2.0728,2.0701,2.0683,2.0649,2.0623,2.0596,2.0581,2.0576,2.0574,2.0569,2.0572,2.0581,2.0578,2.0614,2.0574,2.0574,2.0574,2.0574,2.0574,2.0867,2.0849,2.0827,2.0802,2.0786,2.0767,2.0749,2.0734,2.0712,2.0683,2.0677,2.0649,2.0627,2.0591,2.0576,2.0555,2.0557,2.055,2.0548,2.0547,2.0547,2.0585,2.055,2.055,2.055,2.055,2.055,0,2.0828,2.0815,2.0792,2.0765,2.0746,2.0745,2.0723,2.0707,2.0683,2.0664,2.0643,2.0614,2.059,2.0571,2.0546,2.0533,2.0531,2.0527,2.0528,2.0525,2.0546,2.0553,2.053,2.053,2.053,2.053,2.053,2.053,2.0806,2.0776,2.0769,2.0732,2.0719,2.0692,2.068,2.0664,2.0649,2.0618,2.0598,2.0587,2.0569,2.0543,2.0522,2.0517,2.0509,2.0506,2.0501,2.0521,2.0523,2.0525,2.0532,2.0505,2.0505,2.0482,2.0482,2.0482]},{"header":{"parameterUnit":"m.s-1","parameterCategory":1,"la1":30.2991,"la2":30.254,"lo1":-89.0895,"lo2":-89.0444,"dy":0.0017,"dx":0.0017,"nx":28,"ny":28,"refTime":"2024-02-28T03:00:00:Z","depth":0,"parameterNumber":3,"parameterNumberName":"V-component_of_WINDS"},"data":[0,0,0,0,0,0,0,0,0,0,0,0,0,0,0,0,0,0,0,0,0,0,0,0,0,0,0,0,0,0,0,0,0,0,0,0,0,0,0,0,0,0,0,0,0,0,0,0,0,0,0,0,0,0,0,0,0,0,1.5549,1.555,0,1.5672,1.5674,1.5675,1.5713,1.5713,1.5712,1.5712,1.5835,1.5838,1.5842,0,0,0,0,0,0,0,0,0,0,0,0,0,1.5342,1.5346,1.5549,1.555,1.5552,1.5672,1.5674,1.5675,1.5713,1.5713,1.5712,1.5711,1.5833,1.5838,1.5842,0,0,0,0,0,0,0,0,0,0,0,0,0,1.5445,1.5347,1.5548,1.5585,1.559,1.5672,1.5674,1.5676,1.5714,1.5713,1.5712,1.5711,1.5832,1.5837,1.5843,1.5896,0,0,1.5861,1.5863,0,0,0,0,0,0,0,0,1.5439,1.5453,1.5578,1.5583,1.5588,1.5677,1.5646,1.5749,1.5714,1.5667,1.5712,1.5711,1.5782,1.5792,1.5817,1.5902,1.5907,1.5861,1.5864,1.5867,1.5869,0,0,0,0,0,0,0,1.5432,1.5448,1.5598,1.558,1.5586,1.5595,1.5608,1.5666,1.5728,1.5671,1.5674,1.5688,1.5785,1.5812,1.582,1.5909,1.5861,1.5866,1.5869,1.5872,1.6041,1.6043,0,0,0,0,0,0,1.5419,1.5441,1.5594,1.5601,1.551,1.5599,1.5614,1.5649,1.5727,1.5738,1.5689,1.5689,1.5802,1.5814,1.5825,1.5892,1.5867,1.5872,1.5876,1.604,1.6042,1.6043,0,0,0,0,0,0,1.5415,1.5432,1.5589,1.5522,1.5543,1.5603,1.5642,1.5652,1.5679,1.5741,1.5752,1.5705,1.5802,1.5817,1.5878,1.5896,1.5875,1.588,1.6039,1.6041,1.6042,1.6025,0,0,0,0,0,0,1.5409,1.5431,1.5452,1.5523,1.5546,1.5641,1.5643,1.5655,1.5689,1.5691,1.5759,1.5769,1.5802,1.5869,1.5884,1.5904,1.5885,1.6038,1.604,1.6042,1.6025,1.6026,1.6028,0,0,0,0,0,1.5401,1.5442,1.5453,1.5471,1.5575,1.5642,1.5655,1.5694,1.569,1.5712,1.5752,1.5767,1.5892,1.5875,1.5892,1.5914,1.6037,1.6039,1.6042,1.6024,1.6026,1.6028,0,0,0,0,0,0,1.5372,1.5452,1.5465,1.5531,1.5579,1.5648,1.5677,1.5695,1.5745,1.5744,1.5789,1.5803,1.5861,1.5894,1.5874,1.5968,1.5965,1.5971,1.5946,1.5948,1.5949,1.5941,1.5889,0,0,0,0,0,1.5373,1.5422,1.5489,1.554,1.5564,1.5616,1.5647,1.5672,1.5724,1.5744,1.5789,1.5837,1.5887,1.5919,1.5969,1.6029,1.6044,1.6052,1.6054,1.6055,1.6059,1.6093,1.6097,1.6051,1.6051,1.6051,0,0,1.5375,1.5425,1.5454,1.5535,1.5576,1.5624,1.5633,1.5684,1.572,1.5752,1.5813,1.5846,1.5903,1.5964,1.5993,1.5993,1.6075,1.6058,1.6058,1.6062,1.6096,1.61,1.6104,1.6052,1.6052,1.6052,0,0,1.5405,1.5448,1.5496,1.5536,1.5598,1.5632,1.5643,1.571,1.5734,1.5796,1.582,1.5863,1.5949,1.5988,1.6019,1.6063,1.6079,1.6078,1.6086,1.6118,1.6121,1.6125,1.614,1.6145,1.6082,1.6082,1.6082,0,1.5401,1.5476,1.5517,1.5567,1.5602,1.5633,1.568,1.5717,1.5792,1.5814,1.5813,1.5921,1.5961,1.6031,1.6042,1.6066,1.6079,1.607,1.6118,1.6122,1.6126,1.6141,1.6146,1.6081,1.6081,1.6081,1.6082,0,1.5467,1.5519,1.5549,1.5621,1.5659,1.5707,1.5754,1.5788,1.5809,1.5843,1.5905,1.5954,1.6014,1.6033,1.6054,1.6106,1.6103,1.6109,1.6107,1.6129,1.6144,1.615,1.6081,1.6081,1.6081,1.6081,0,0,1.5483,1.5577,1.5587,1.562,1.569,1.573,1.5779,1.5839,1.5866,1.5915,1.5957,1.6028,1.6034,1.6069,1.6095,1.6123,1.6154,1.6126,1.6128,1.6129,1.6213,1.6208,1.6215,1.6164,1.6166,1.6167,1.6208,0,1.5522,1.5612,1.565,1.5722,1.577,1.58,1.5842,1.5889,1.5921,1.5965,1.6001,1.6051,1.6055,1.6076,1.6106,1.6144,1.6171,1.6141,1.6203,1.6204,1.6188,1.6222,1.6218,1.6255,1.6214,1.6215,1.6216,0,1.558,1.5631,1.5708,1.5772,1.5793,1.5831,1.5888,1.593,1.5983,1.6005,1.6044,1.6068,1.6119,1.6112,1.6182,1.6161,1.6188,1.621,1.6213,1.622,1.6212,1.6231,1.6268,1.6273,1.6226,1.6225,1.6224,0,1.5583,1.5671,1.5729,1.5756,1.5832,1.5857,1.589,1.5942,1.5975,1.6024,1.6046,1.61,1.613,1.617,1.6208,1.62,1.6274,1.6271,1.6293,1.6292,1.6308,1.6306,1.6349,1.6324,1.6324,1.6324,1.6324,0,1.5623,1.5669,1.5731,1.5767,1.5819,1.5861,1.5911,1.5945,1.5991,1.6032,1.6061,1.6099,1.6146,1.6189,1.6219,1.6272,1.6285,1.6303,1.631,1.6301,1.6299,1.6319,1.6318,1.6326,1.6325,1.6325,1.6325,0,1.5636,1.568,1.5744,1.5811,1.5829,1.5864,1.592,1.5955,1.5988,1.6041,1.6055,1.6108,1.616,1.6202,1.627,1.6289,1.6346,1.6353,1.6328,1.6332,1.6352,1.635,1.6411,1.6421,1.6388,1.6388,1.6388,0,1.5658,1.5695,1.5765,1.5796,1.5828,1.5877,1.5911,1.5953,1.5987,1.605,1.6077,1.6132,1.6178,1.626,1.6304,1.6356,1.6365,1.6383,1.6373,1.6362,1.6366,1.6363,1.6367,1.6384,1.6384,1.6384,1.6384,0,1.5694,1.5714,1.5763,1.5819,1.5859,1.5905,1.5952,1.5975,1.6025,1.6061,1.6116,1.6152,1.6222,1.6276,1.6332,1.6364,1.6382,1.6387,1.6395,1.6386,1.637,1.6379,1.6332,1.6386,1.6386,1.6385,1.6385,1.6385,1.5713,1.5746,1.5801,1.5854,1.5894,1.5937,1.5973,1.6011,1.6058,1.6119,1.614,1.6197,1.6247,1.6325,1.6357,1.6401,1.6402,1.6413,1.6416,1.6419,1.6418,1.6363,1.6411,1.6411,1.6411,1.6411,1.6411,0,1.575,1.5786,1.5835,1.59,1.5941,1.5956,1.6007,1.6041,1.6091,1.6137,1.6182,1.6245,1.6297,1.6344,1.6398,1.6423,1.6433,1.6436,1.6435,1.6442,1.6414,1.6402,1.6428,1.6428,1.6428,1.6428,1.6428,1.6428,1.5774,1.5831,1.5857,1.5934,1.597,1.6027,1.6055,1.6094,1.6131,1.62,1.6244,1.6275,1.6321,1.6379,1.6427,1.6439,1.6458,1.6459,1.6473,1.6446,1.6444,1.6442,1.6431,1.6462,1.6462,1.6498,1.6498,1.6498]}]]